Regional Weather Roundup
Issued by NWS

Home | Current Version | Previous Version | Graphics & Text | Print | Product List | Glossary On
Versions: 1 2 3 4 5 6 7 8 9 10 11 12 13 14 15 16 17 18 19 20 21 22 23 24 25 26 27 28 29 30 31 32 33 34 35 36 37 38 39 40 41 42 43 44 45 46 47 48 49 50
000
ASUS44 KMEG 051310
RWRTN
TENNESSEE HOURLY STATE WEATHER ROUNDUP
NATIONAL WEATHER SERVICE MEMPHIS TN
700 AM CST MON DEC 05 2016

TNZ002-004-019-021-049-052-054-088>092-051400-
WEST TENNESSEE

CITY           SKY/WX    TMP DP  RH WIND       PRES   REMARKS
MEMPHIS INTL   CLOUDY    42  39  89 NE10      30.01S
NWS MEMPHIS      N/A     42 N/A N/A MISG        N/A
JACKSON        CLOUDY    42  38  85 E9        30.04R
DYERSBURG      CLOUDY   N/A N/A N/A E5        30.04R
UNION CITY     CLOUDY    39  36  87 E5        30.03F
PARIS          CLOUDY    37  34  87 NE8       30.04S WCI  31
HUNTINGDON     CLOUDY    41  37  87 E9        30.03R
LEXINGTON      CLOUDY    41  39  93 NE3       30.02S
$$

TNZ008-025-027-028-033-062-065-066-051400-
NORTH MIDDLE TENNESSEE

CITY           SKY/WX    TMP DP  RH WIND       PRES   REMARKS
NASHVILLE      CLOUDY    43  39  86 NE8       30.06R
PORTLAND       CLOUDY    39  37  93 E7        30.06R WCI  34
CLARKSVILLE    CLOUDY    39  33  79 NE9       30.07S WCI  33
SMYRNA         CLOUDY    43  41  93 N7        30.06S
CROSSVILLE     CLOUDY    43  41  93 NE6       30.02S
$$

TNZ061-075-076-078-094-096-097-051400-
SOUTH MIDDLE TENNESSEE

CITY           SKY/WX    TMP DP  RH WIND       PRES   REMARKS
FAYETTEVILLE   CLOUDY    45  45 100 NE9       30.01R FOG
TULLAHOMA      CLOUDY    43  43 100 NE6       30.01S
WINCHESTER     CLOUDY    45  45 100 N5        30.01R
MCMINNVILLE    CLOUDY    45  45 100 NE8       30.01F
COLUMBIA       CLOUDY   N/A N/A N/A NE6       30.01S
SHELBYVILLE    CLOUDY    45  45 100 N5        30.02F
$$

TNZ017-018-042-046-047-051400-
NORTHEAST TENNESSEE

CITY           SKY/WX    TMP DP  RH WIND       PRES   REMARKS
TRI CITIES     CLOUDY    46  45  96 CALM      30.04S FOG
ELIZABETHTON   FOG       46  45  93 CALM      30.03S VSB 1
$$

TNZ012-013-036-069-073-074-051400-
CENTRAL EAST TENNESSEE

CITY           SKY/WX    TMP DP  RH WIND       PRES   REMARKS
KNOXVILLE      CLOUDY    47  45  93 NE6       30.02S FOG
OAK RIDGE      CLOUDY    48  46  93 E3        30.04S FOG
DOWNTOWN KNOXV CLOUDY    46  46 100 CALM      30.04S FOG
GATLINBURG     CLOUDY    45  45 100 CALM      30.03S
MORRISTOWN     FOG       45  45 100 CALM      30.03S VSB 3/4
JACKSBORO      CLOUDY    46  45  93 NE5       30.07S
$$

TNZ083-085-099-051400-
SOUTHEAST TENNESSEE

CITY           SKY/WX    TMP DP  RH WIND       PRES   REMARKS
CHATTANOOGA    CLOUDY    48  45  89 N3        30.01F FOG
$$

SKY/WX REPORTED AS FAIR MEANS FEW OR NO CLOUDS BELOW
12 THOUSAND FEET.





USA.gov is the U.S. government's official web portal to all federal, state and local government web resources and services.